Location: Bishopstone
(51.0167°N, 1.9000°W)
Time: 05:51:09
(UTC+00:00)

ARGOS - Pass Details

Date: 16 September 2019
Orbit: 821 x 834 km, 98.5° (Epoch: 18 October)

Event Time Altitude Azimuth Distance (km) Brightness Sun altitude
Exits shadow 19:49:53 10° 157° (SSE) 2,394 5.1 -14.5°
Maximum altitude 19:55:10 78° 73° (ENE) 849 3.1 -15.2°
Drops below altitude 10° 20:00:34 10° 347° (NNW) 2,442 6.1 -16.0°
Sets 20:02:56 0° 347° (NNW) 3,381 6.9 -16.3°
